| time (UTC) | temp F | wind direction | speed knots | gust knots | rain 1hr in | rain 24hr in | rain mn in | humidity % | barometer mb |
| 20260831171606 | 74 | 192 | 0.0 | 8.7 | 0.00 | 0.00 | 0.00 | 19 | 1019.8 |
| 20260831170131 | 74 | 217 | 2.6 | 7.8 | 0.00 | 0.00 | 0.00 | 21 | 1019.8 |
| 20260831164601 | 73 | 194 | 2.6 | 11.3 | 0.00 | 0.00 | 0.00 | 20 | 1019.8 |
| 20260831163105 | 73 | 208 | 2.6 | 8.7 | 0.00 | 0.00 | 0.00 | 23 | 1019.9 |
| 20260831161616 | 72 | 254 | 3.5 | 8.7 | 0.00 | 0.00 | 0.00 | 24 | 1019.8 |
| 20260831160104 | 71 | 226 | 2.6 | 8.7 | 0.00 | 0.00 | 0.00 | 25 | 1019.7 |
| 20260831154636 | 69 | 182 | 1.7 | 8.7 | 0.00 | 0.00 | 0.00 | 29 | 1019.6 |
| 20260831153110 | 67 | 0 | 0.9 | 3.5 | 0.00 | 0.00 | 0.00 | 30 | 1019.7 |
| 20260831151606 | 65 | 183 | 1.7 | 5.2 | 0.00 | 0.00 | 0.00 | 31 | 1019.8 |
| 20260831150110 | 64 | 195 | 1.7 | 7.8 | 0.00 | 0.00 | 0.00 | 35 | 1019.8 |
| 20260831144601 | 62 | 189 | 1.7 | 6.1 | 0.00 | 0.00 | 0.00 | 43 | 1019.7 |
| 20260831143107 | 61 | 163 | 0.9 | 4.3 | 0.00 | 0.00 | 0.00 | 45 | 1019.6 |
| 20260831141602 | 59 | 139 | 0.0 | 2.6 | 0.00 | 0.00 | 0.00 | 50 | 1019.6 |
| 20260831134604 | 56 | 170 | 0.0 | 3.5 | 0.00 | 0.00 | 0.00 | 57 | 1019.4 |
| 20260831133106 | 55 | 107 | 0.9 | 5.2 | 0.00 | 0.00 | 0.00 | 59 | 1019.1 |
| 20260831131608 | 53 | 91 | 1.7 | 6.1 | 0.00 | 0.00 | 0.00 | 60 | 1019.0 |
| 20260831130105 | 51 | 350 | 1.7 | 3.5 | 0.00 | 0.00 | 0.00 | 64 | 1018.9 |
| 20260831124600 | 48 | 0 | 0.0 | 4.3 | 0.00 | 0.00 | 0.00 | 70 | 1018.9 |
| 20260831123105 | 49 | 350 | 0.9 | 3.5 | 0.00 | 0.00 | 0.00 | 71 | 1018.8 |
| 20260831121559 | 47 | 0 | 0.0 | 3.5 | 0.00 | 0.00 | 0.00 | 78 | 1018.6 |
| 20260831120112 | 47 | 350 | 0.0 | 2.6 | 0.00 | 0.00 | 0.00 | 82 | 1018.6 |
| 20260831114612 | 47 | 350 | 0.0 | 2.6 | 0.00 | 0.00 | 0.00 | 82 | 1018.4 |
| 20260831113104 | 47 | 0 | 0.0 | 1.7 | 0.00 | 0.00 | 0.00 | 83 | 1018.3 |
| 20260831111615 | 47 | 0 | 0.0 | 2.6 | 0.00 | 0.00 | 0.00 | 81 | 1018.2 |
| 20260831104601 | 49 | 0 | 0.0 | 2.6 | 0.00 | 0.00 | 0.00 | 79 | 1018.1 |
| 20260831103118 | 49 | 0 | 0.0 | 1.7 | 0.00 | 0.00 | 0.00 | 79 | 1018.1 |
| 20260831101605 | 49 | 0 | 0.0 | 0.9 | 0.00 | 0.00 | 0.00 | 80 | 1018.0 |
| 20260831100100 | 50 | 0 | 0.0 | 2.6 | 0.00 | 0.00 | 0.00 | 79 | 1017.8 |
| 20260831094602 | 50 | 0 | 0.0 | 0.9 | 0.00 | 0.00 | 0.00 | 78 | 1017.7 |
| 20260831093106 | 50 | 350 | 0.0 | 1.7 | 0.00 | 0.00 | 0.00 | 77 | 1017.6 |
| 20260831091614 | 51 | 350 | 1.7 | 3.5 | 0.00 | 0.00 | 0.00 | 76 | 1017.5 |
| 20260831090114 | 51 | 0 | 0.0 | 1.7 | 0.00 | 0.00 | 0.00 | 76 | 1017.3 |
| 20260831084600 | 52 | 0 | 0.0 | 3.5 | 0.00 | 0.00 | 0.00 | 76 | 1017.4 |
| 20260831083113 | 52 | 0 | 0.0 | 0.9 | 0.00 | 0.00 | 0.00 | 77 | 1017.4 |
| 20260831081602 | 52 | 0 | 0.0 | 0.9 | 0.00 | 0.00 | 0.00 | 77 | 1017.5 |
| 20260831080112 | 53 | 0 | 0.0 | 1.7 | 0.00 | 0.00 | 0.00 | 76 | 1017.4 |
| 20260831074611 | 53 | 0 | 0.0 | 1.7 | 0.00 | 0.00 | 0.00 | 75 | 1017.3 |
| 20260831073102 | 54 | 350 | 0.0 | 0.0 | 0.00 | 0.00 | 0.00 | 73 | 1017.3 |
| 20260831071603 | 54 | 0 | 0.0 | 1.7 | 0.00 | 0.00 | 0.00 | 72 | 1017.3 |
| 20260831064603 | 56 | 350 | 0.9 | 3.5 | 0.00 | 0.00 | 0.00 | 69 | 1017.4 |
| 20260831063106 | 57 | 350 | 1.7 | 3.5 | 0.00 | 0.00 | 0.00 | 69 | 1017.3 |
| 20260831061604 | 58 | 0 | 0.0 | 2.6 | 0.00 | 0.00 | 0.00 | 68 | 1017.4 |
| 20260831060121 | 58 | 0 | 0.0 | 3.5 | 0.00 | 0.00 | 0.00 | 67 | 1017.1 |
| 20260831054617 | 59 | 0 | 0.9 | 3.5 | 0.00 | 0.00 | 0.00 | 66 | 1016.9 |
| 20260831053105 | 60 | 350 | 0.0 | 2.6 | 0.00 | 0.00 | 0.00 | 65 | 1016.8 |
| 20260831051603 | 60 | 350 | 0.9 | 3.5 | 0.00 | 0.00 | 0.00 | 64 | 1016.9 |
| 20260831050117 | 61 | 0 | 0.9 | 2.6 | 0.00 | 0.00 | 0.00 | 62 | 1016.7 |
| 20260831044604 | 62 | 305 | 2.6 | 5.2 | 0.00 | 0.00 | 0.00 | 60 | 1016.4 |
| 20260831043106 | 62 | 299 | 1.7 | 6.1 | 0.00 | 0.00 | 0.00 | 59 | 1016.5 |
| 20260831041629 | 64 | 297 | 1.7 | 6.1 | 0.00 | 0.00 | 0.00 | 56 | 1016.4 |
| 20260831040108 | 65 | 262 | 1.7 | 4.3 | 0.00 | 0.00 | 0.00 | 52 | 1016.5 |
| 20260831034606 | 66 | 247 | 1.7 | 6.1 | 0.00 | 0.00 | 0.00 | 47 | 1016.2 |
| 20260831033110 | 67 | 172 | 1.7 | 5.2 | 0.00 | 0.00 | 0.00 | 45 | 1016.3 |
| 20260831031612 | 68 | 0 | 0.0 | 5.2 | 0.00 | 0.00 | 0.00 | 41 | 1016.0 |
| 20260831030118 | 70 | 251 | 0.9 | 7.8 | 0.00 | 0.00 | 0.00 | 30 | 1015.8 |
| 20260831024602 | 72 | 0 | 1.7 | 6.1 | 0.00 | 0.00 | 0.00 | 27 | 1015.5 |
| 20260831023109 | 73 | 263 | 1.7 | 7.0 | 0.00 | 0.00 | 0.00 | 26 | 1015.1 |
| 20260831021613 | 73 | 257 | 2.6 | 9.6 | 0.00 | 0.00 | 0.00 | 25 | 1015.0 |
| 20260831020113 | 74 | 225 | 4.3 | 13.0 | 0.00 | 0.00 | 0.00 | 25 | 1014.8 |
| 20260831014607 | 75 | 235 | 4.3 | 10.4 | 0.00 | 0.00 | 0.00 | 24 | 1014.6 |
| 20260831013107 | 76 | 222 | 4.3 | 11.3 | 0.00 | 0.00 | 0.00 | 23 | 1014.6 |
| 20260831011603 | 77 | 309 | 5.2 | 12.2 | 0.00 | 0.00 | 0.00 | 23 | 1014.5 |
| 20260831010107 | 78 | 255 | 5.2 | 13.9 | 0.00 | 0.00 | 0.00 | 24 | 1014.3 |
| 20260831004604 | 78 | 243 | 7.0 | 13.9 | 0.00 | 0.00 | 0.00 | 23 | 1014.5 |
| 20260831003107 | 79 | 227 | 3.5 | 13.0 | 0.00 | 0.00 | 0.00 | 26 | 1014.5 |
| 20260831001602 | 79 | 259 | 6.1 | 11.3 | 0.00 | 0.00 | 0.00 | 25 | 1014.6 |
| 20260831000106 | 79 | 233 | 6.1 | 13.9 | 0.00 | 0.00 | 0.00 | 24 | 1014.7 |
| 20260830234607 | 79 | 211 | 7.0 | 17.4 | 0.00 | 0.00 | 0.00 | 27 | 1014.5 |
| 20260830233106 | 79 | 196 | 7.0 | 13.9 | 0.00 | 0.00 | 0.00 | 29 | 1014.5 |
| 20260830231606 | 80 | 220 | 6.1 | 16.5 | 0.00 | 0.00 | 0.00 | 29 | 1014.3 |
| 20260830230111 | 79 | 238 | 5.2 | 13.9 | 0.00 | 0.00 | 0.00 | 30 | 1014.6 |
| 20260830224609 | 78 | 174 | 4.3 | 16.5 | 0.00 | 0.00 | 0.00 | 30 | 1014.6 |
| 20260830223108 | 79 | 268 | 7.0 | 17.4 | 0.00 | 0.00 | 0.00 | 28 | 1014.7 |
| 20260830221627 | 79 | 206 | 7.8 | 13.9 | 0.00 | 0.00 | 0.00 | 31 | 1014.8 |
| 20260830220116 | 78 | 217 | 7.0 | 18.2 | 0.00 | 0.00 | 0.00 | 32 | 1015.0 |
| 20260830214607 | 79 | 260 | 7.8 | 17.4 | 0.00 | 0.00 | 0.00 | 31 | 1015.0 |
| 20260830213106 | 78 | 214 | 9.6 | 19.1 | 0.00 | 0.00 | 0.00 | 30 | 1015.1 |
| 20260830211611 | 77 | 242 | 7.8 | 16.5 | 0.00 | 0.00 | 0.00 | 31 | 1015.1 |
| 20260830210105 | 77 | 201 | 8.7 | 20.9 | 0.00 | 0.00 | 0.00 | 31 | 1015.1 |
| 20260830204607 | 77 | 218 | 7.8 | 20.0 | 0.00 | 0.00 | 0.00 | 32 | 1015.2 |
| 20260830203105 | 77 | 274 | 7.0 | 21.7 | 0.00 | 0.00 | 0.00 | 32 | 1015.2 |
| 20260830201635 | 77 | 252 | 8.7 | 20.0 | 0.00 | 0.00 | 0.00 | 33 | 1015.1 |
| 20260830200113 | 78 | 261 | 9.6 | 23.5 | 0.00 | 0.00 | 0.00 | 31 | 1015.2 |
| 20260830194615 | 78 | 193 | 11.3 | 24.3 | 0.00 | 0.00 | 0.00 | 31 | 1015.0 |
| 20260830193112 | 79 | 302 | 7.8 | 21.7 | 0.00 | 0.00 | 0.00 | 32 | 1014.5 |
| 20260830191607 | 79 | 226 | 8.7 | 20.0 | 0.00 | 0.00 | 0.00 | 33 | 1014.5 |
| 20260830190103 | 78 | 213 | 10.4 | 23.5 | 0.00 | 0.00 | 0.00 | 32 | 1014.2 |
| 20260830184606 | 79 | 194 | 11.3 | 21.7 | 0.00 | 0.00 | 0.00 | 31 | 1014.2 |
| 20260830183103 | 77 | 219 | 8.7 | 20.9 | 0.00 | 0.00 | 0.00 | 33 | 1014.4 |
| 20260830181607 | 77 | 240 | 8.7 | 21.7 | 0.00 | 0.00 | 0.00 | 31 | 1014.4 |
| 20260830180105 | 79 | 215 | 12.2 | 22.6 | 0.00 | 0.00 | 0.00 | 33 | 1014.3 |
| 20260830174603 | 79 | 204 | 8.7 | 20.9 | 0.00 | 0.00 | 0.00 | 34 | 1014.3 |
| 20260830173123 | 78 | 222 | 7.8 | 13.0 | 0.00 | 0.00 | 0.00 | 36 | 1014.6 |